Погода в Вилючинске

Россия / Камчатский край     52°54′24″N   158°25′05″E
темп.,
°C
ветер,
м/с
пор.,
м/с
влажн.,
%
обл.,
%
осадки,
мм/ч
давл.,
гПа
погр.,
м
28 ноября, вс
вс2800:00−3ссз4495100 1.6 1000228
03:00−7ссз5582100 0.2 1001195
06:00−8ссз5587100 0.5 1002208
09:00−8сз568597 0.3 1003234
12:00−7сз56786 0.3 1002244
15:00−5сз56723 0.0 1001323
18:00−9зсз67772 0.0 1003267
21:00−11сз68833 0.0 1004215
29 ноября, пн
пн2900:00−12сз68843 0.0 1005199
03:00−13сз78813 0.0 1005184
06:00−12сз68765 0.0 1006179
09:00−11сз677398 0.0 1007178
12:00−7сз567297 0.0 1008212
15:00−4сз5673100 0.0 1008315
18:00−6сз5576100 0.0 1009193
21:00−6сз4578100 0.0 1010168
30 ноября, вт
вт3000:00−6сз4579100 0.0 1010178
03:00−6ссз3477100 0.0 1010174
06:00−6сз2276100 0.0 1008143
09:00−6сз3273100 0.1 1006197
12:00−5сз4591100 0.5 1005309
15:00−3зсз47775 0.2 1006502
18:00−5з813751 0.2 1010621
21:00−5зсз1015661 0.0 10141077
1 декабря, ср
ср100:00−7зсз714721 0.0 1017956
03:00−8зсз510772 0.0 1020465
06:00−9сз448319 0.0 1023149
09:00−10сз4484100 0.0 1024143
12:00−8сз3383100 0.0 1024165
15:00−5зсз2281100 0.0 1023131
18:00−5з1180100 0.0 1022149
21:00−4с1196100 1.4 1020121
2 декабря, чт
чт200:00−3з2297100 5.6 1016154
03:00−1зюз3395100 5.4 1011150
06:00−1ссз2296100 6.6 1007118
09:00+1вюв1499100 4.4 1000145
12:00+5ююв81298100 13.3 994265
15:00+5ююв91397100 4.8 986241
18:00+3ююв4696100 5.5 983138
21:00+2ююз348156 0.1 983119